Back to Previous

Regional Weather Roundup

190 
ASUS44 KLZK 252005
RWRLZK

WEATHER ROUNDUP FOR ARKANSAS
NATIONAL WEATHER SERVICE LITTLE ROCK AR
300 PM CDT MON JUL 25 2016

NOTE: "FAIR" INDICATES FEW OR NO CLOUDS BELOW 12,000 FEET WITH NO
SIGNIFICANT WEATHER AND/OR OBSTRUCTIONS TO VISIBILITY.

ARZ001-003-010-029-252100-
NORTHWEST ARKANSAS
  
CITY           SKY/WX    TMP DP  RH WIND       PRES   REMARKS
FAYETTEVILLE   PTSUNNY   80  76  87 E8        30.00F HX  86           
FORT SMITH     PTSUNNY   86  72  62 E10       29.95F HX  92           
HARRISON       CLOUDY    81  72  74 S6        30.01F HX  85           
BENTONVILLE    CLOUDY    81  70  69 SE10      30.00F                  
ROGERS         PTSUNNY   79  72  79 SE13      30.00F                  
SILOAM SPGS    CLOUDY    82  66  57 SE10      30.00F HX  85           
HIGHFILL       CLOUDY    81  73  76 SE9       30.00F HX  86           
SPRINGDALE     MOSUNNY   79  73  83 SE7       30.03F                  
$$

ARZ004-005-016-252100-
NORTH CENTRAL ARKANSAS
  
CITY           SKY/WX    TMP DP  RH WIND       PRES   REMARKS
BATESVILLE     PTSUNNY   91  73  55 SE5       29.96F HX 100           
FLIPPIN        CLOUDY    86  70  58 NE5       29.96F HX  90           
MTN HOME       CLOUDY    85  73  67 VRB3      29.99F HX  91           
$$

ARZ040-041-252100-
WEST CENTRAL ARKANSAS
  
CITY           SKY/WX    TMP DP  RH WIND       PRES   REMARKS
MENA           MOSUNNY   90  72  55 NE10G17   30.00S HX  96           
MOUNT IDA      CLOUDY    82  73  74 VRB5G16   30.01R HX  87           
$$

ARZ009-017-025-026-028-252100-
NORTHEAST ARKANSAS
  
CITY           SKY/WX    TMP DP  RH WIND       PRES   REMARKS
CORNING          N/A     82  79  89 E9        29.97F HX  93           
JONESBORO      MOSUNNY   91  75  59 W8        29.96F HX 101           
NEWPORT        MOSUNNY   93  78  61 E6        29.97F HX 108           
WALNUT RIDGE   MOSUNNY   91  75  59 E7        29.94F HX 102           
BLYTHEVILLE    MOSUNNY   89  78  70 N15G22    29.97S HX 103           
$$

ARZ022-023-033-042-044-252100-
CENTRAL ARKANSAS
  
CITY           SKY/WX    TMP DP  RH WIND       PRES   REMARKS
LITTLE ROCK    MOSUNNY   96  73  47 SE8       29.95F HX 105           
N LITTLE ROCK    N/A     94  74  51 CALM      29.92F HX 103           
JACKSONVILLE   MOSUNNY   96  73  48 E7        29.94F HX 105           
SEARCY         SUNNY     96  76  52 E6        29.97F HX 109           
HOT SPRINGS    PTSUNNY   93  71  48 E12       29.95F HX 100           
RUSSELLVILLE   SUNNY     88  72  58 NE6       29.96F HX  94           
$$

ARZ036-252100-
EAST ARKANSAS
  
CITY           SKY/WX    TMP DP  RH WIND       PRES   REMARKS
WEST MEMPHIS   MOSUNNY   92  76  59 W6        29.94F HX 104           
$$

ARZ050-053-066-070-073-252100-
SOUTHWEST ARKANSAS
  
CITY           SKY/WX    TMP DP  RH WIND       PRES   REMARKS
CAMDEN         SUNNY     91  73  55 S7        29.92F HX 100           
TEXARKANA      MOSUNNY   95  72  47 VRB6      29.92F HX 103           
EL DORADO      SUNNY     95  71  45 N9        29.93F HX 102           
DE QUEEN       MOSUNNY   93  74  53 MISG      29.91F HX 103           
$$

ARZ056-057-069-252100-
SOUTHEAST ARKANSAS
  
CITY           SKY/WX    TMP DP  RH WIND       PRES   REMARKS
PINE BLUFF     SUNNY     93  71  48 E6        29.95F HX 100           
STUTTGART      PTSUNNY   91  72  52 SE3       29.96F HX  98           
MONTICELLO     MOSUNNY   93  76  57 E6        29.94F HX 105           

$$


  


USA.gov is the U.S. government's official web portal to all federal, state and local government web resources and services.